This is the latest recevied weather packets stored in our database for station/object DL9GRB-13. If no packets are shown the sender has not sent any weather packets the latest 10 day(s).
| Time | Temp. | Humidity | Pressure | Rain* | Wind** | Luminosity | Snow |
|---|---|---|---|---|---|---|---|
| 1778260749 | 13.33° C | 48% | 1020.3 hPa | 0 mm | - | 50 W/m² | - |
| 1778260569 | 13.33° C | 47% | 1020.2 hPa | 0 mm | - | 44 W/m² | - |
| 1778260389 | 13.89° C | 46% | 1020.3 hPa | 0 mm | - | 45 W/m² | - |
| 1778260209 | 13.89° C | 47% | 1020.3 hPa | 0 mm | - | 47 W/m² | - |
| 1778260029 | 14.44° C | 46% | 1020.4 hPa | 0 mm | - | 76 W/m² | - |
| 1778259849 | 14.44° C | 47% | 1020.3 hPa | 0 mm | - | 76 W/m² | - |
| 1778259669 | 14.44° C | 47% | 1020 hPa | 0 mm | - | 85 W/m² | - |
| 1778259489 | 14.44° C | 47% | 1019.8 hPa | 0 mm | - | 60 W/m² | - |
| 1778259309 | 14.44° C | 48% | 1020 hPa | 0 mm | - | 60 W/m² | - |
| 1778259129 | 14.44° C | 47% | 1020.1 hPa | 0 mm | - | 55 W/m² | - |
| 1778258949 | 14.44° C | 47% | 1019.9 hPa | 0 mm | - | 69 W/m² | - |
| 1778258769 | 14.44° C | 47% | 1019.8 hPa | 0 mm | - | 64 W/m² | - |
| 1778258589 | 14.44° C | 47% | 1019.9 hPa | 0 mm | - | 94 W/m² | - |
| 1778258409 | 14.44° C | 46% | 1019.9 hPa | 0 mm | - | 89 W/m² | - |
| 1778258229 | 14.44° C | 46% | 1020 hPa | 0 mm | - | 124 W/m² | - |
| 1778258049 | 14.44° C | 46% | 1019.7 hPa | 0 mm | - | 140 W/m² | - |
| 1778257869 | 14.44° C | 47% | 1019.9 hPa | 0 mm | - | 133 W/m² | - |
| 1778257689 | 14.44° C | 48% | 1019.9 hPa | 0 mm | - | 104 W/m² | - |
| 1778257509 | 14.44° C | 47% | 1019.8 hPa | 0 mm | - | 124 W/m² | - |
| 1778257329 | 14.44° C | 47% | 1020.1 hPa | 0 mm | - | 62 W/m² | - |
| 1778257149 | 15° C | 46% | 1019.9 hPa | 0 mm | - | 75 W/m² | - |
| 1778256969 | 15° C | 45% | 1019.9 hPa | 0 mm | - | 75 W/m² | - |
| 1778256789 | 15° C | 44% | 1019.9 hPa | 0 mm | - | 170 W/m² | - |
| 1778256609 | 15.56° C | 44% | 1019.9 hPa | 0 mm | - | 197 W/m² | - |
| 1778256429 | 15° C | 45% | 1019.8 hPa | 0 mm | - | 176 W/m² | - |
* Rain latest hour (hover to see other rain measurements)
** Current wind speed in m/s (hover to see current wind gust speed)